Flag for U.S.A. Weather past 2 weeks in Modesto, California, U.S.A.

Now
85 °F

Sunny.


Feels Like: 82 °F
Forecast: 57 / 86 °F
Wind: 9 mph from North

Location: Modesto City-County-Sham Field

Current Time: May 24, 2015 at 5:40:23 PM

Latest Report: May 24, 2015 at 4:53 PM


Visibility: 10 mi

Pressure: 29.85 "Hg

Humidity: 27%

Dew point: 47 °F

Location of ModestoLocation

Historic Weather in Modesto — Graph

°F

Modesto temperature yesterday

Maximum temperature yesterday: 78 °F (at 2:53 PM)
Minimum temperature yesterday: 57 °F (at 3:53 AM)
Average temperature yesterday: 66 °F

Past Weeks' High & Low Weather Summary

 TemperatureHumidityPressure
High84 °F (May 10, 4:53 PM)90% (May 16, 5:53 AM)30.08 "Hg (May 16, 5:53 AM)
Low48 °F (May 12, 5:53 AM)16% (May 10, 6:53 PM)29.77 "Hg (May 14, 1:53 PM)
Average64 °F53%29.93 "Hg
* Reported May 9 3:53 PM — May 24 3:53 PM, Modesto, Weather by CustomWeather, © 2015

Note: Actual official high and low records may vary slightly from our data, if they occured in-between our weather recording intervals... More about our weather records

Advertising

Modesto weather history for previous 24 hours

 ConditionsComfort  
Time TempWeatherWind HumidityBarometerVisibility
3:53 PM
Sun, May 24
83 °FSunny.3 mph30%29.88 "Hg10 mi
2:53 PM82 °FSunny.7 mph32%29.90 "Hg10 mi
1:53 PM81 °FSunny.5 mph34%29.91 "Hg10 mi
12:53 PM78 °FSunny.No wind37%29.94 "Hg10 mi
11:53 AM75 °FSunny.5 mph40%29.96 "Hg10 mi
10:53 AM72 °FSunny.No wind43%29.97 "Hg10 mi
9:53 AM68 °FSunny.3 mph49%29.98 "Hg10 mi
8:53 AM64 °FSunny.No wind56%29.98 "Hg10 mi
7:53 AM61 °FSunny.No wind62%29.97 "Hg10 mi
6:53 AM57 °FSunny.No wind74%29.96 "Hg10 mi
5:53 AM54 °FClear.No wind80%29.95 "Hg10 mi
4:53 AM57 °FClear.3 mph69%29.94 "Hg10 mi
3:53 AM57 °FClear.5 mph72%29.95 "Hg10 mi
2:53 AM57 °FClear.6 mph72%29.96 "Hg10 mi
1:53 AM58 °FClear.7 mph70%29.96 "Hg10 mi
12:53 AM59 °FClear.5 mph67%29.97 "Hg10 mi
11:53 PM
Sat, May 23
61 °FClear.6 mph62%29.97 "Hg10 mi
10:53 PM64 °FClear.8 mph56%29.98 "Hg10 mi
9:53 PM65 °FClear.7 mph54%29.97 "Hg10 mi
8:53 PM67 °FSunny.10 mph51%29.96 "Hg10 mi
7:53 PM70 °FSunny.13 mph47%29.96 "Hg10 mi
6:53 PM75 °FSunny.16 mph42%29.94 "Hg10 mi
5:53 PM77 °FSunny.7 mph36%29.94 "Hg10 mi
Weather by CustomWeather, © 2015

See weather overviewHow to use our weather pages